Seward, AK

4:46 AM AKDT on October 17, 2017 (GMT -0800)
Seward

Weather History for PAWD - December, 2011

Change the Weather History Date:

Wednesday, December 21, 2011

  Actual Average Record
Temperature  
Mean Temperature 30 °F -  
Max Temperature 36 °F 31 °F 45 °F (1963)
Min Temperature 24 °F 21 °F -2 °F (1957)
Degree Days  
Heating Degree Days 35    
Moisture  
Dew Point 23 °F    
Average Humidity 82    
Maximum Humidity 100    
Minimum Humidity 41    
Precipitation  
Precipitation 0.02 in - - ()
Sea Level Pressure  
Sea Level Pressure 29.64 in    
Wind  
Wind Speed 6 mph (NNW)    
Max Wind Speed 12 mph    
Max Gust Speed 21 mph    
Visibility 8 miles    
Events Fog , Snow    
Averages and records for this station are not official NWS values.
T = Trace of Precipitation, MM = Missing Value Source: NWS Daily Summary

Daily Weather History Graph

Daily Weather History Graph

Search for Another Location

Airport or City:

Trip Planner

Search our weather history database for the weather conditions in past years. The results will help you decide how hot, cold, wet, or windy it might be!

Date:

Astronomy

Dec. 21, 2011 Rise Set
Actual Time 10:00 AM AKST 3:50 PM AKST
Civil Twilight 9:02 AM AKST 4:48 PM AKST
Nautical Twilight 8:05 AM AKST 5:46 PM AKST
Astronomical Twilight 7:13 AM AKST 6:37 PM AKST
Moon 6:27 AM AKST (12/21) 1:32 PM AKST (12/21)
Length of Visible Light 7h 46m
Length of Day
5h 49m
Waning Crescent, 11% of the Moon is Illuminated
Dec 21
Waning Crescent
Dec 24
New
Dec 31
First Quarter
Jan 8
Full
Jan 16
Last Quarter

Hourly Weather History & Observations

Time (AKST) Temp. Windchill Dew Point Humidity Pressure Visibility Wind Dir Wind Speed Gust Speed Precip Events Conditions
12:53 AM 35.1 °F 26.9 °F 35.1 °F 100% 29.42 in 10.0 mi South 11.5 mph 20.7 mph 0.01 in   Overcast
1:16 AM 35.6 °F 28.0 °F 35.6 °F 100% 29.43 in 10.0 mi SSW 10.4 mph - N/A   Overcast
1:53 AM 36.0 °F 30.3 °F 35.1 °F 97% 29.45 in 10.0 mi SW 6.9 mph - N/A   Overcast
3:53 AM 33.1 °F - 27.0 °F 78% 29.53 in 10.0 mi Calm Calm - N/A   Partly Cloudy
4:53 AM 32.0 °F 25.6 °F 25.0 °F 75% 29.56 in 10.0 mi ENE 6.9 mph - N/A   Scattered Clouds
5:53 AM 32.0 °F - 24.1 °F 73% 29.61 in 10.0 mi Calm Calm - N/A   Clear
6:53 AM 36.0 °F 32.1 °F 14.0 °F 41% 29.63 in 10.0 mi SSW 4.6 mph - N/A   Scattered Clouds
7:53 AM 28.0 °F - 21.0 °F 75% 29.65 in 10.0 mi Calm Calm - N/A   Clear
8:53 AM 26.1 °F - 21.9 °F 84% 29.66 in 10.0 mi Calm Calm - N/A   Clear
9:53 AM 24.1 °F 18.2 °F 21.9 °F 91% 29.70 in 10.0 mi North 4.6 mph - N/A   Clear
10:53 AM 25.0 °F 19.3 °F 21.9 °F 88% 29.71 in 10.0 mi NNW 4.6 mph - N/A   Clear
11:53 AM 26.1 °F 18.4 °F 23.0 °F 88% 29.71 in 10.0 mi North 6.9 mph - N/A   Clear
12:53 PM 26.1 °F 20.5 °F 21.9 °F 84% 29.71 in 10.0 mi NNW 4.6 mph - N/A   Mostly Cloudy
1:53 PM 27.0 °F - 21.9 °F 81% 29.71 in 10.0 mi Calm Calm - N/A   Overcast
2:48 PM 28.4 °F 21.2 °F 23.0 °F 80% 29.71 in 4.0 mi NNW 6.9 mph - 0.00 in Snow Light Snow
2:53 PM 28.0 °F 21.7 °F 23.0 °F 81% 29.71 in 2.5 mi NW 5.8 mph - 0.00 in Snow Light Snow
2:58 PM 28.4 °F 21.2 °F 23.0 °F 80% 29.70 in 1.2 mi NNW 6.9 mph - 0.00 in Snow Light Snow
3:05 PM 26.6 °F 19.1 °F 23.0 °F 86% 29.70 in 0.5 mi North 6.9 mph - 0.01 in Fog , Snow Snow
3:13 PM 28.4 °F 21.2 °F 24.8 °F 86% 29.70 in 1.0 mi North 6.9 mph - 0.01 in Snow Light Snow
3:17 PM 28.4 °F 22.2 °F 24.8 °F 86% 29.70 in 2.5 mi North 5.8 mph - 0.01 in Snow Light Snow
3:24 PM 28.4 °F 23.3 °F 24.8 °F 86% 29.70 in 9.0 mi North 4.6 mph - 0.01 in Snow Light Snow
3:46 PM 28.4 °F 24.6 °F 24.8 °F 86% 29.70 in 5.0 mi NW 3.5 mph - 0.01 in Snow Light Snow
3:53 PM 28.0 °F 24.2 °F 24.1 °F 85% 29.70 in 7.0 mi NNW 3.5 mph - 0.01 in Snow Light Snow
4:53 PM 27.0 °F 19.5 °F 21.9 °F 81% 29.70 in 10.0 mi North 6.9 mph - 0.00 in   Mostly Cloudy
5:00 PM 26.6 °F 20.0 °F 21.2 °F 80% 29.69 in 10.0 mi NNW 5.8 mph - N/A   Overcast
5:25 PM 26.6 °F 19.1 °F 21.2 °F 80% 29.68 in 10.0 mi North 6.9 mph - N/A   Mostly Cloudy
5:53 PM 27.0 °F 20.5 °F 21.0 °F 78% 29.68 in 10.0 mi North 5.8 mph - N/A   Mostly Cloudy
6:53 PM 26.1 °F 18.4 °F 21.0 °F 81% 29.66 in 10.0 mi North 6.9 mph - N/A   Overcast
7:53 PM 24.1 °F 18.2 °F 19.9 °F 84% 29.65 in 10.0 mi North 4.6 mph - N/A   Clear
8:53 PM 25.0 °F 16.3 °F 21.0 °F 85% 29.63 in 10.0 mi North 8.1 mph - N/A   Scattered Clouds
9:53 PM 25.0 °F 14.8 °F 19.9 °F 81% 29.61 in 10.0 mi North 10.4 mph - N/A   Overcast
10:53 PM 26.1 °F 16.2 °F 19.0 °F 75% 29.58 in 10.0 mi NNE 10.4 mph 18.4 mph N/A   Scattered Clouds
11:53 PM 27.0 °F 16.7 °F 18.0 °F 69% 29.54 in 10.0 mi NNE 11.5 mph - N/A   Partly Cloudy